Regional Weather Roundup
Issued by NWS Wakefield, VA

Home | Current Version | Previous Version | Graphics & Text | Print | Product List | Glossary On
Versions: 1 2 3 4 5 6 7 8 9 10 11 12 13 14 15 16 17 18 19 20 21 22 23 24 25 26 27 28
000
ASUS41 KAKQ 271815
RWRAKQ

REGIONAL WEATHER ROUNDUP
NATIONAL WEATHER SERVICE WAKEFIELD VA
200 PM EDT THU APR 27 2017

Note: "fair" indicates few or no clouds below 12,000 feet with no
significant weather and/or obstructions to visibility. * = Denotes
station may not report precipitation (e.g., rain,snow,etc.),
thunder or fog.

VAZ042-051-052>054-056-271900-
NORTHERN VIRGINIA

CITY           SKY/WX    TMP DP  RH WIND       PRES   REMARKS
WASH NATIONAL  CLOUDY    81  66  60 S10       29.80F
DULLES         CLOUDY    78  65  63 S7        29.78F
FORT BELVOIR   MOSUNNY   81  62  53 S8G18     29.79F
QUANTICO       CLOUDY    76  67  73 SW5       29.80F
FREDERICKSBRG* CLOUDY    83  63  50 S9G22     29.78F
STAFFORD*      CLOUDY    79  60  52 S9G16     29.83F
WARRENTON      CLOUDY    80  59  49 SW8       29.78F
CULPEPER*      CLOUDY    79  62  55 SW14G20   29.80S
MANASSAS*        N/A     79  64  60 S8        29.79F
LEESBURG*      CLOUDY    81  68  65 S13G18    29.80F
WINCHESTER     CLOUDY    73  63  68 SE8G16    29.77F
FRONT ROYAL*   PTCLDY    77  63  61 S9        29.76R
LURAY*         PTCLDY    79  55  44 S9        29.76S
$$

VAZ048-049-060>072-079>083-271900-
CENTRAL AND SOUTH CENTRAL VIRGINIA

CITY           SKY/WX    TMP DP  RH WIND       PRES   REMARKS
RICHMOND       PTSUNNY   81  64  56 S12       29.82F
CHESTERFIELD*  MOCLDY    82  54  36 S9G17     29.84S
PETERSBURG*    PTSUNNY   82  60  47 S7        29.84F
HANOVER        CLOUDY    82  61  48 S13       29.83F
TAPPAHANNOCK*  CLOUDY    82  60  46 SE7G18    29.82F
QUINTON*       FAIR      81  62  51 S6        29.82F
CHARLOTTSVILLE CLOUDY    81  58  45 S16G24    29.79F
GORDONSVILLE*  CLOUDY    81  62  51 S12G21    29.79S
ORANGE*        CLOUDY    79  61  53 SW9G17    29.80S
LOUISA*        CLOUDY    82  63  51 SW7G17    29.81S
BUMPASS*       FAIR      80  61  52 SW12G18   29.81S
FARMVILLE*     PTSUNNY   81  61  50 S15       29.81F
CREWE*         FAIR      81  60  48 SW13G18   29.84R
FORT PICKETT*  FAIR      81  53  37 SW20G26   29.84S
CHASE CITY*    FAIR      80  58  46 S5        29.84F
CLARKSVILLE*   FAIR      79  61  53 S9G18     29.85F
SOUTH HILL*    CLOUDY    79  62  55 SW10G17   29.91S
LAWRENCEVILLE* FAIR      80  64  56 S12       29.85F
EMPORIA*       MOSUNNY   79  63  57 S10G21    29.87S
$$

VAZ088>098-271900-
SOUTHEAST VIRGINIA

CITY           SKY/WX    TMP DP  RH WIND       PRES   REMARKS
NORFOLK        SUNNY     85  61  44 S15G26    29.84F
VIRGINIA BEACH MOSUNNY   82  59  45 S18G24    29.85F
NORFOLK NAVAL  MOSUNNY   83  57  41 S12G23    29.86F
WEST POINT*    CLOUDY    82  56  40 S8        29.85S
SALUDA*        FAIR      80  60  49 S7        29.83F
NEWPORT NEWS   MOSUNNY   82  56  40 SW15      29.84F
LANGLEY AFB    MOSUNNY   82  60  48 SW15G23   29.84F
FORT EUSTIS    MOSUNNY   82  59  44 S8        29.82F
WILLIAMSBURG*  MOSUNNY   82  57  42 CALM      29.85S
HR EXEC AP*    FAIR      82  59  44 SW14G21   29.83F
FRANKLIN*      SUNNY     81  56  41 SW12G20   29.86S
US460-WAKEFLD  CLOUDY    81  56  42 SW8G16    29.85S
$$

VAZ020-022-025-037-045-271900-
WEST CENTRAL AND SOUTHWEST VIRGINIA

CITY           SKY/WX    TMP DP  RH WIND       PRES   REMARKS
STAUNTON*      PTSUNNY   77  55  45 S16G22    29.81S
WAYNESBORO*    CLOUDY    76  57  50 S13G26    29.81F
HOT SPRINGS VA MOSUNNY   70  46  43 S12G18    29.90R
LYNCHBURG      PTSUNNY   78  55  44 S14G32    29.84S
DANVILLE       CLOUDY    79  56  45 SW15G25   29.84F
SOUTH BOSTON*  FAIR      79  55  43 SW14G21   29.85S
MARTINSVILLE   PTSUNNY   75  56  50 S9G16     29.88R
ROANOKE        MOSUNNY   77  56  48 SE15      29.82S
BLACKSBURG     CLOUDY    74  55  52 S9G16     29.89R
DUBLIN*        PTSUNNY   77  51  40 S18G24    29.86R
MARION*        CLOUDY    71  56  58 CALM      29.88R
HILLSVILLE*    CLOUDY    66  58  73 S10G23    29.87S
RICHLANDS*     CLOUDY    71  54  55 S8G17     29.81R
WISE*          DRIZZLE   63  55  77 S7        29.83R
ABINGDON*      CLOUDY    74  56  53 SW10G16   29.80S
$$

MDZ021>025-VAZ099-100-271900-
SOUTHERN MARYLAND AND THE DELMARVA PENINSULA

CITY           SKY/WX    TMP DP  RH WIND       PRES   REMARKS
PATUXENT RIVER CLOUDY    73  66  78 SE10      29.81F
BAY BRIDGE APT CLOUDY    79  66  65 S10       29.82F HAZE
LEONARDTOWN    PTSUNNY   81  61  50 S9        29.83F
DOVER          PTSUNNY   65  60  82 E8        29.84F
GEORGETOWN     SUNNY     83  64  52 SW10      29.85F
EASTON         MOSUNNY   81  64  57 S7        29.87F
CAMBRIDGE      SUNNY     77  66  69 SE12      29.83F
SALISBURY      SUNNY     81  65  58 S14G20    29.85F
OCEAN CITY     SUNNY     68  60  75 S7        29.87F
WALLOPS ISLAND PTSUNNY   76  64  66 S14       29.87F
ACCOMACK*      SUNNY     81  56  42 SW14G24   29.86F
$$

NCZ012>017-030>032-271900-
NORTH CENTRAL AND EASTERN NORTH CAROLINA

CITY           SKY/WX    TMP DP  RH WIND       PRES   REMARKS
ROANOKE RAPIDS FAIR      79  63  57 SW13G21   29.88R
RALEIGH        CLOUDY    80  57  45 SW13      29.88S
ELIZABETH CITY SUNNY     82  65  56 S13G22    29.88F
AHOSKIE*         N/A     81  61  51 S5        29.87S
EDENTON*       SUNNY     83  64  52 S10       29.89S
CURRITUCK*     SUNNY     82  61  49 SW13G18   29.88F
KILL DEVIL HLS MOSUNNY   80  65  59 S9G17     29.89F
MANTEO         SUNNY     76  66  71 S17       29.91F
CAPE HATTERAS  MOSUNNY   81  68  64 SE6       29.94F HAZE
TARBORO*       NOT AVBL
GOLDSBORO      PTSUNNY   81  57  43 SW13G20   29.88S
WASHINGTON     MOSUNNY   82  62  50 S13G18    29.88F
GREENVILLE     MOSUNNY   82  63  51 S10G16    29.90F
NEW BERN       MOSUNNY   83  66  56 S13       29.90F
WILMINGTON     MOSUNNY   82  60  47 S15G24    29.91S
$$

VAZ048-271900-
ELSEWHERE

CITY           SKY/WX    TMP DP  RH WIND       PRES   REMARKS
HARRISBURG PA  CLOUDY    78  65  63 SE7       29.78F
BALTIMORE      CLOUDY    77  66  68 SE7       29.80F
ANNAPOLIS      CLOUDY    71  65  81 SE7       29.82F
ANDREWS AFB    CLOUDY    79  65  60 S13       29.80F
PHILADELPHIA   PTSUNNY   79  63  57 S13       29.84F
HENDERSON NC   CLOUDY    75  57  54 SW13      29.87F
GREENSBORO     CLOUDY    76  57  51 SW17      29.87S
ROCKY MOUNT    MOSUNNY   81  62  52 SW12G20   29.88F
$$

VAZ100-271900-
MARINE

STATION/POSITION TIME  TEMP    WIND        PRES    WAVE   SWELL
                       AIR SEA DIR/SP/G            HT/PER HT/PER
                 (UTC) (F)     (DEG/KT/KT) (MB)    (FT/S) (FT/S)
CAPE MAY NJ      1748   64 56  110/  9/ 11 1011.2F
LEWES DE         1748   66 56  140/  9/ 11 1010.9F
15NM E FENWICK I 1750   55 53  160/  8/  8 1012.5F   5/10   5/10
WACHAPREAGUE VA  1748   73 69  150/  9/ 11 1011.1F
THOMAS POINT MD  1800   68 58  130/  4/  6   N/A
GOOSES REEF MD   1800   66 56  150/ 10/ 10 1010.3    1/ 2
COVE POINT MD    1748   63     170/  8/ 15 1010.5F
SOLOMONS ISLAND  1748   69 60  110/ 10/ 13   N/A
BISHOPS HEAD MD  1748   65 66  150/ 12/ 13 1011.0F
PINEY POINT MD   1748          180/  8/  9   N/A
POTOMAC MD       1800   66 61  160/ 12/ 14 1008.9    1/ 3
CAMBRIDGE MD     1742   79 63                N/A
LEWISETTA VA     1748   78 65  190/  9/ 12 1009.3F
RAPPAHANNOCK LGT 1748          170/ 13/ 14 1011.5F
STINGRAY PT      1750   68     170/ 10/ 12 1010.8F
YORK RVR RNG VA  1748   75     210/ 13/ 15 1009.9F
YORKTOWN VA      1748   80 63  190/ 13/ 17 1010.1F
JAMESTOWN VA     1800   78 68  190/  8/ 12   N/A     0
DOMINION TERM VA 1748   73     230/  9/ 12 1010.8F
KIPTOPEKE VA     1748      61  160/  5/  6   N/A
CHES BAY BRIDGE  1748   78 63  220/ 11/ 19 1010.6F
CAPE HENRY VA    1748   82     200/ 10/ 21   N/A
WILLOUBY STN VA  1748   79     190/ 16/ 18 1011.6F
S CRANEY ISL VA  1748   79     200/ 15/ 17 1010.5F
CAPE HENRY BUOY  1642      61                N/A     3/ 9   2/11
1ST LANDING BUOY 1800   75 63              1010.8    1/ 3
CAPE CHARLES BUO 1651      59                N/A     3/ 9   2/12
64NM E OF VA BCH 1750   60 57  190/ 10/ 12 1014.0F   5/ 9   5/ 9
DUCK PIER NC     1748   78 58  190/ 10/ 13 1011.9F
OREGON INLET NC  1736   74 69  170/ 10/ 12 1013.6F
HATTERAS NC      1748   77 69  220/  8/ 11 1013.7F
DIAMOND SHLS NC  1750   76 77  240/ 14/ 16 1014.2F   5/ 9   3/ 9
CAPE LOOKOUT NC  1800   75     200/ 12/ 16 1013.2F
$$




USA.gov is the U.S. government's official web portal to all federal, state and local government web resources and services.